TimeEST,TemperatureF,Dew PointF,Humidity,Sea Level PressureIn,VisibilityMPH,Wind Direction,Wind SpeedMPH,Gust SpeedMPH,PrecipitationIn,Events,Conditions,WindDirDegrees,DateUTC
12:53 AM,33.1,21.0,61,30.51,10.0,Calm,Calm,-,N/A,,Clear,0,2013-01-11 05:53:00
1:53 AM,32.0,21.0,64,30.51,10.0,Calm,Calm,-,N/A,,Clear,0,2013-01-11 06:53:00
2:53 AM,28.0,21.0,75,30.51,10.0,Calm,Calm,-,N/A,,Clear,0,2013-01-11 07:53:00
3:53 AM,26.1,21.0,81,30.48,10.0,Calm,Calm,-,N/A,,Clear,0,2013-01-11 08:53:00
4:53 AM,28.0,21.0,75,30.46,10.0,Calm,Calm,-,N/A,,Clear,0,2013-01-11 09:53:00
5:53 AM,26.1,21.9,84,30.48,10.0,Calm,Calm,-,N/A,,Clear,0,2013-01-11 10:53:00
6:53 AM,28.9,21.9,75,30.49,10.0,Calm,Calm,-,N/A,,Clear,0,2013-01-11 11:53:00
7:53 AM,28.0,23.0,81,30.49,10.0,Calm,Calm,-,N/A,,Clear,0,2013-01-11 12:53:00
8:53 AM,32.0,24.1,73,30.50,10.0,Calm,Calm,-,N/A,,Clear,0,2013-01-11 13:53:00
9:53 AM,36.0,26.1,67,30.49,10.0,Calm,Calm,-,N/A,,Clear,0,2013-01-11 14:53:00
10:53 AM,39.0,28.9,67,30.45,10.0,Calm,Calm,-,N/A,,Clear,0,2013-01-11 15:53:00
11:53 AM,39.9,28.9,65,30.42,10.0,Calm,Calm,-,N/A,,Clear,0,2013-01-11 16:53:00
12:53 PM,41.0,30.0,65,30.40,10.0,SE,4.6,-,N/A,,Clear,140,2013-01-11 17:53:00
1:53 PM,41.0,30.0,65,30.38,10.0,SE,5.8,-,N/A,,Partly Cloudy,130,2013-01-11 18:53:00
2:53 PM,41.0,30.2,65,30.37,10.0,South,3.5,-,N/A,,Partly Cloudy,190,2013-01-11 19:53:00
3:53 PM,39.9,30.9,70,30.34,10.0,SE,5.8,-,N/A,,Partly Cloudy,130,2013-01-11 20:53:00
4:53 PM,39.0,30.9,73,30.32,10.0,SE,3.5,-,N/A,,Overcast,130,2013-01-11 21:53:00
5:53 PM,37.9,33.1,83,30.31,10.0,SE,3.5,-,0.00,Rain,Light Rain,130,2013-01-11 22:53:00
6:53 PM,37.9,34.0,86,30.30,10.0,SE,6.9,-,0.00,,Overcast,140,2013-01-11 23:53:00
7:53 PM,39.0,34.0,82,30.28,10.0,SE,6.9,-,0.00,Rain,Light Rain,140,2013-01-12 00:53:00
8:53 PM,39.0,35.1,86,30.25,6.0,ESE,5.8,-,0.01,Rain,Light Rain,120,2013-01-12 01:53:00
9:53 PM,39.0,36.0,89,30.25,9.0,ESE,6.9,-,0.02,Rain,Light Rain,120,2013-01-12 02:53:00
10:42 PM,39.2,37.4,93,30.25,5.0,Calm,Calm,-,N/A,Rain,Rain,0,2013-01-12 03:42:00
10:53 PM,39.0,37.0,93,30.24,5.0,ESE,4.6,-,0.06,Rain,Light Rain,120,2013-01-12 03:53:00
11:10 PM,39.2,37.4,93,30.21,6.0,ESE,10.4,-,0.02,Rain,Light Rain,120,2013-01-12 04:10:00
11:21 PM,39.2,37.4,93,30.21,6.0,SE,9.2,-,0.02,Rain,Light Rain,140,2013-01-12 04:21:00
11:25 PM,39.2,37.4,93,30.21,6.0,SE,8.1,-,0.03,Rain,Light Rain,140,2013-01-12 04:25:00
11:53 PM,39.9,37.9,93,30.21,10.0,SE,9.2,-,0.03,Rain,Light Rain,130,2013-01-12 04:53:00